FW7828 Weather Reports


time (UTC)temp
C
wind
direction
speed
KPH
gust
KPH
rain 1hr
cm
rain 24hr
cm
rain mn
cm
humidity
%
barometer
mb
20260506042113 18 210 1.6 1.6 0.00 0.00 0.00 87 1015.5
20260506041612 18 258 0.0 0.0 0.00 0.00 0.00 87 1015.7
20260506041108 18 225 6.4 8.0 0.00 0.00 0.00 86 1015.7
20260506040606 18 216 0.0 1.6 0.00 0.00 0.00 86 1015.8
20260506035559 18 186 4.8 4.8 0.00 0.00 0.00 85 1015.6
20260506035056 18 168 4.8 8.0 0.00 0.00 0.00 85 1015.5
20260506034553 18 224 3.2 4.8 0.00 0.00 0.00 84 1015.5
20260506034050 18 172 4.8 8.0 0.00 0.00 0.00 84 1015.6
20260506033547 18 213 3.2 4.8 0.00 0.00 0.00 84 1015.5
20260506033044 18 168 8.0 9.7 0.00 0.00 0.00 83 1015.5
20260506032541 18 176 4.8 4.8 0.00 0.00 0.00 83 1015.6
20260506032032 18 179 8.0 11.3 0.00 0.00 0.00 82 1015.6
20260506031530 18 197 6.4 8.0 0.00 0.00 0.00 82 1015.6
20260506031027 18 185 4.8 8.0 0.00 0.00 0.00 81 1015.6
20260506030525 18 226 6.4 8.0 0.00 0.00 0.00 81 1015.6
20260506030022 18 171 4.8 9.7 0.00 0.00 0.00 81 1015.6
20260506025519 19 219 3.2 4.8 0.00 0.00 0.00 81 1015.6
20260506025015 19 190 4.8 4.8 0.00 0.00 0.00 80 1015.4
20260506024512 19 188 6.4 9.7 0.00 0.00 0.00 80 1015.8
20260506024008 19 173 4.8 8.0 0.00 0.00 0.00 79 1015.6
20260506023504 19 188 8.0 11.3 0.00 0.00 0.00 79 1015.7
20260506023002 19 172 8.0 11.3 0.00 0.00 0.00 80 1015.4
20260506022459 19 174 6.4 8.0 0.00 0.00 0.00 79 1015.6
20260506021957 19 183 6.4 9.7 0.00 0.00 0.00 79 1015.7
20260506021454 19 157 4.8 8.0 0.00 0.00 0.00 79 1015.5
20260506020951 20 186 4.8 8.0 0.00 0.00 0.00 78 1015.6
20260506020449 20 185 9.7 11.3 0.00 0.00 0.00 78 1015.6
20260506015946 20 183 8.0 9.7 0.00 0.00 0.00 76 1015.4
20260506015443 20 165 4.8 8.0 0.00 0.00 0.00 78 1015.6
20260506014940 20 171 6.4 9.7 0.00 0.00 0.00 77 1015.3
20260506014437 20 178 6.4 8.0 0.00 0.00 0.00 77 1015.3
20260506013933 20 183 6.4 9.7 0.00 0.00 0.00 77 1015.4
20260506013432 20 161 8.0 9.7 0.00 0.00 0.00 76 1015.1
20260506012928 20 173 8.0 9.7 0.00 0.00 0.00 74 1015.4
20260506012424 20 188 8.0 11.3 0.00 0.00 0.00 76 1015.3
20260506011921 20 181 6.4 8.0 0.00 0.00 0.00 76 1015.3
20260506011419 20 162 8.0 9.7 0.00 0.00 0.00 75 1015.3
20260506010915 20 185 6.4 8.0 0.00 0.00 0.00 75 1015.1
20260506010414 20 167 8.0 9.7 0.00 0.00 0.00 75 1015.1
20260506005910 20 197 9.7 12.9 0.00 0.00 0.00 75 1015.0
20260506005408 20 207 4.8 8.0 0.00 0.00 0.00 74 1014.8
20260506004903 20 218 4.8 8.0 0.00 0.00 0.00 73 1014.9
20260506004401 20 193 6.4 9.7 0.00 0.00 0.00 74 1015.1
20260506003857 20 222 4.8 8.0 0.00 0.00 0.00 73 1015.1
20260506003353 20 179 4.8 9.7 0.00 0.00 0.00 74 1014.8
20260506002850 21 205 4.8 4.8 0.00 0.00 0.00 75 1014.8
20260506002346 21 182 8.0 11.3 0.00 0.00 0.00 74 1014.6
20260506001841 21 184 6.4 8.0 0.00 0.00 0.00 73 1014.7
20260506001339 21 223 6.4 8.0 0.00 0.00 0.00 73 1014.5
20260506000836 21 168 4.8 4.8 0.00 0.00 0.00 72 1014.9
20260506000334 21 182 9.7 11.3 0.00 0.00 0.00 71 1014.8
20260505235830 21 186 8.0 9.7 0.00 0.00 0.00 70 1014.8
20260505235328 21 185 8.0 11.3 0.00 0.00 0.00 72 1014.6
20260505234824 21 191 8.0 8.0 0.00 0.00 0.00 72 1014.5
20260505234322 21 358 6.4 9.7 0.00 0.00 0.00 71 1014.4
20260505233819 21 165 6.4 8.0 0.00 0.00 0.00 71 1014.5
20260505233317 21 183 8.0 11.3 0.00 0.00 0.00 70 1014.2
20260505232814 21 150 11.3 16.1 0.00 0.00 0.00 69 1014.3
20260505232311 21 181 8.0 9.7 0.00 0.00 0.00 71 1014.3
20260505231808 22 175 8.0 11.3 0.00 0.00 0.00 70 1014.1
20260505231306 22 176 11.3 14.5 0.00 0.00 0.00 68 1014.1
20260505230804 22 170 8.0 9.7 0.00 0.00 0.00 69 1014.0
20260505230300 22 194 11.3 14.5 0.00 0.00 0.00 68 1014.0
20260505225757 22 135 9.7 11.3 0.00 0.00 0.00 67 1014.1
20260505225254 22 166 4.8 8.0 0.00 0.00 0.00 70 1013.9
20260505224749 22 193 8.0 11.3 0.00 0.00 0.00 69 1013.9
20260505224247 22 159 6.4 8.0 0.00 0.00 0.00 69 1014.0
20260505223745 22 154 8.0 9.7 0.00 0.00 0.00 69 1014.0
20260505223241 22 162 9.7 11.3 0.00 0.00 0.00 67 1013.9
20260505222737 22 181 8.0 11.3 0.00 0.00 0.00 67 1014.2
20260505222233 22 171 11.3 12.9 0.00 0.00 0.00 68 1014.0
20260505221731 23 197 6.4 9.7 0.00 0.00 0.00 69 1014.2
20260505221227 23 171 8.0 11.3 0.00 0.00 0.00 68 1013.9
20260505220724 23 228 4.8 8.0 0.00 0.00 0.00 67 1014.0
20260505220222 22 162 8.0 11.3 0.00 0.00 0.00 68 1014.1
20260505215720 23 158 9.7 12.9 0.00 0.00 0.00 68 1014.1
20260505215217 23 166 6.4 8.0 0.00 0.00 0.00 69 1014.1
20260505214715 23 184 9.7 11.3 0.00 0.00 0.00 67 1014.0
20260505214212 23 162 8.0 11.3 0.00 0.00 0.00 68 1014.0
20260505213709 23 176 8.0 9.7 0.00 0.00 0.00 68 1014.1
20260505213206 23 191 8.0 11.3 0.00 0.00 0.00 65 1013.8
20260505212702 23 169 8.0 8.0 0.00 0.00 0.00 67 1013.8
20260505212200 23 178 8.0 11.3 0.00 0.00 0.00 66 1013.8
20260505211656 23 174 8.0 9.7 0.00 0.00 0.00 66 1013.8
20260505211154 23 181 6.4 8.0 0.00 0.00 0.00 68 1013.9
20260505210650 23 133 4.8 4.8 0.00 0.00 0.00 68 1014.0
20260505210141 23 150 4.8 4.8 0.00 0.00 0.00 68 1013.9
20260505205638 23 159 4.8 4.8 0.00 0.00 0.00 67 1013.9
20260505205137 24 147 4.8 8.0 0.00 0.00 0.00 68 1013.8
20260505204633 23 171 8.0 9.7 0.00 0.00 0.00 67 1013.7
20260505204131 24 173 6.4 8.0 0.00 0.00 0.00 65 1014.0
20260505203628 25 161 4.8 4.8 0.00 0.00 0.00 64 1013.8
20260505203125 24 166 8.0 9.7 0.00 0.00 0.00 65 1013.7
20260505202620 24 150 4.8 4.8 0.00 0.00 0.00 65 1013.8
20260505202116 25 173 4.8 4.8 0.00 0.00 0.00 64 1014.0
20260505201613 24 158 4.8 4.8 0.00 0.00 0.00 63 1013.9
20260505201111 25 171 4.8 8.0 0.00 0.00 0.00 65 1013.9
20260505200609 25 161 3.2 3.2 0.00 0.00 0.00 64 1014.2
20260505200106 25 192 9.7 11.3 0.00 0.00 0.00 61 1014.3
20260505195601 25 161 4.8 4.8 0.00 0.00 0.00 63 1014.3
20260505195059 25 143 3.2 3.2 0.00 0.00 0.00 63 1014.1
20260505194556 25 161 4.8 4.8 0.00 0.00 0.00 60 1014.5
20260505194051 25 168 4.8 4.8 0.00 0.00 0.00 62 1014.6
20260505193548 25 201 9.7 11.3 0.00 0.00 0.00 58 1014.8
20260505193045 25 130 3.2 3.2 0.00 0.00 0.00 61 1014.6
20260505192544 26 198 8.0 9.7 0.00 0.00 0.00 56 1014.7
20260505192041 26 305 3.2 3.2 0.00 0.00 0.00 55 1014.8
20260505191540 26 234 3.2 8.0 0.00 0.00 0.00 53 1014.8
20260505191038 26 216 1.6 3.2 0.00 0.00 0.00 58 1014.8
20260505190532 26 249 3.2 4.8 0.00 0.00 0.00 56 1014.8
20260505190029 26 159 4.8 4.8 0.00 0.00 0.00 59 1014.8
20260505185525 26 249 3.2 4.8 0.00 0.00 0.00 56 1015.1
20260505185022 26 177 6.4 8.0 0.00 0.00 0.00 53 1015.2
20260505184519 25 155 3.2 3.2 0.00 0.00 0.00 55 1014.9
20260505184015 26 183 6.4 8.0 0.00 0.00 0.00 56 1015.2
20260505183512 26 180 4.8 4.8 0.00 0.00 0.00 54 1015.1
20260505183009 26 273 1.6 3.2 0.00 0.00 0.00 55 1015.2
20260505182506 26 151 8.0 9.7 0.00 0.00 0.00 56 1015.2
20260505182003 26 164 4.8 11.3 0.00 0.00 0.00 55 1015.5
20260505181459 26 226 1.6 1.6 0.00 0.00 0.00 56 1015.4
20260505180956 26 212 6.4 8.0 0.00 0.00 0.00 55 1015.3
20260505180452 25 182 4.8 4.8 0.00 0.00 0.00 55 1015.1
20260505175949 25 241 1.6 3.2 0.00 0.00 0.00 55 1015.3
20260505175445 25 224 6.4 9.7 0.00 0.00 0.00 56 1015.5
20260505174942 25 177 6.4 8.0 0.00 0.00 0.00 55 1015.4
20260505174439 25 197 6.4 11.3 0.00 0.00 0.00 54 1015.5
20260505173935 25 182 4.8 4.8 0.00 0.00 0.00 58 1015.4
20260505173431 25 223 1.6 3.2 0.00 0.00 0.00 59 1015.5
20260505172929 24 184 4.8 4.8 0.00 0.00 0.00 58 1015.7
20260505172428 24 169 4.8 4.8 0.00 0.00 0.00 59 1015.8
20260505171926 25 175 4.8 4.8 0.00 0.00 0.00 57 1015.6
20260505171423 25 188 4.8 4.8 0.00 0.00 0.00 55 1015.7
20260505170920 25 161 1.6 1.6 0.00 0.00 0.00 57 1015.9
20260505170416 25 182 4.8 4.8 0.00 0.00 0.00 60 1016.0
20260505165912 25 165 4.8 4.8 0.00 0.00 0.00 56 1016.0
20260505165409 24 332 3.2 4.8 0.00 0.00 0.00 57 1016.1
20260505164904 23 148 1.6 3.2 0.00 0.00 0.00 60 1016.1
20260505164401 24 83 3.2 4.8 0.00 0.00 0.00 57 1016.1
20260505163859 23 170 1.6 3.2 0.00 0.00 0.00 56 1016.3
20260505163358 23 109 1.6 1.6 0.00 0.00 0.00 58 1016.3
20260505162856 23 131 4.8 4.8 0.00 0.00 0.00 59 1016.1
20260505162351 23 126 6.4 8.0 0.00 0.00 0.00 57 1016.1
20260505161849 23 193 1.6 3.2 0.00 0.00 0.00 59 1016.4
20260505161345 23 150 4.8 8.0 0.00 0.00 0.00 54 1016.3
20260505160843 23 182 3.2 3.2 0.00 0.00 0.00 60 1016.7
20260505160341 23 156 4.8 4.8 0.00 0.00 0.00 61 1016.6
20260505153319 22 148 4.8 8.0 0.00 0.00 0.00 64 1016.6
20260505152816 22 139 4.8 4.8 0.00 0.00 0.00 65 1016.4
20260505152313 22 158 4.8 4.8 0.00 0.00 0.00 63 1016.6
20260505151808 22 139 4.8 4.8 0.00 0.00 0.00 63 1016.8
20260505151305 22 142 3.2 3.2 0.00 0.00 0.00 64 1016.7
20260505150802 22 174 4.8 8.0 0.00 0.00 0.00 63 1016.6
20260505150259 22 162 4.8 4.8 0.00 0.00 0.00 65 1016.6
20260505140229 20 178 3.2 4.8 0.00 0.00 0.00 70 1016.8
20260505130153 18 162 4.8 9.7 0.00 0.00 0.00 74 1016.8
20260505124643 18 144 3.2 4.8 0.00 0.00 0.00 76 1017.1
20260505124139 18 145 1.6 3.2 0.00 0.00 0.00 78 1017.1
20260505123629 18 157 6.4 8.0 0.00 0.00 0.00 78 1017.0
20260505123126 17 147 3.2 3.2 0.00 0.00 0.00 78 1016.7
20260505122623 17 157 3.2 4.8 0.00 0.00 0.00 80 1016.9
20260505122120 17 168 0.0 0.0 0.00 0.00 0.00 81 1016.6
20260505121616 17 184 1.6 1.6 0.00 0.00 0.00 81 1016.8
20260505121113 16 140 0.0 0.0 0.00 0.00 0.00 82 1017.0
20260505120610 16 178 1.6 1.6 0.00 0.00 0.00 81 1016.9
20260505120106 16 173 6.4 9.7 0.00 0.00 0.00 82 1016.8
20260505115600 16 350 0.0 0.0 0.00 0.00 0.00 82 1017.1
20260505115058 16 174 1.6 3.2 0.00 0.00 0.00 82 1016.8
20260505114555 16 153 0.0 0.0 0.00 0.00 0.00 82 1016.9
20260505114051 16 187 4.8 8.0 0.00 0.00 0.00 83 1016.7
20260505113547 16 163 0.0 0.0 0.00 0.00 0.00 83 1016.7
20260505113044 16 208 0.0 0.0 0.00 0.00 0.00 83 1016.6
20260505112540 16 262 0.0 1.6 0.00 0.00 0.00 83 1016.6
20260505112038 15 176 1.6 3.2 0.00 0.00 0.00 84 1016.6
20260505111532 15 227 0.0 0.0 0.00 0.00 0.00 84 1016.7
20260505111028 15 213 0.0 0.0 0.00 0.00 0.00 85 1016.5
20260505110525 15 147 0.0 0.0 0.00 0.00 0.00 86 1016.5
20260505101958 14 289 1.6 1.6 0.00 0.00 0.00 88 1016.0
20260505101455 14 279 0.0 0.0 0.00 0.00 0.00 88 1015.8
20260505100952 14 313 0.0 0.0 0.00 0.00 0.00 88 1015.8
20260505100449 14 323 0.0 0.0 0.00 0.00 0.00 87 1015.8
20260505095945 14 339 0.0 0.0 0.00 0.00 0.00 87 1015.5
20260505095442 14 303 0.0 0.0 0.00 0.00 0.00 87 1015.6
20260505094938 14 309 0.0 0.0 0.00 0.00 0.00 87 1015.8
20260505094435 14 310 1.6 1.6 0.00 0.00 0.00 87 1015.8
20260505093931 15 358 0.0 0.0 0.00 0.00 0.00 86 1015.7
20260505093428 15 319 0.0 0.0 0.00 0.00 0.00 86 1015.5
20260505092925 15 327 0.0 1.6 0.00 0.00 0.00 86 1015.4
20260505092423 15 146 0.0 1.6 0.00 0.00 0.00 86 1015.5
20260505091920 15 276 0.0 0.0 0.00 0.00 0.00 86 1015.5
20260505091418 15 246 0.0 0.0 0.00 0.00 0.00 86 1015.5
20260505090915 15 250 3.2 4.8 0.00 0.00 0.00 85 1015.3
20260505090413 15 198 0.0 0.0 0.00 0.00 0.00 85 1015.5
20260505085910 15 218 1.6 1.6 0.00 0.00 0.00 85 1015.4
20260505085408 15 182 4.8 8.0 0.00 0.00 0.00 86 1015.4
20260505084906 15 351 0.0 0.0 0.00 0.00 0.00 86 1015.4
20260505084404 15 317 0.0 0.0 0.00 0.00 0.00 85 1015.2
20260505083902 15 281 0.0 0.0 0.00 0.00 0.00 85 1015.3
20260505083400 15 242 0.0 1.6 0.00 0.00 0.00 85 1015.2
20260505082856 15 278 0.0 0.0 0.00 0.00 0.00 85 1015.5
20260505082351 15 341 0.0 1.6 0.00 0.00 0.00 85 1015.4
20260505081848 15 291 0.0 0.0 0.00 0.00 0.00 84 1015.1
20260505081345 15 256 1.6 1.6 0.00 0.00 0.00 84 1015.0
20260505080842 15 236 1.6 1.6 0.00 0.00 0.00 84 1015.2
20260505080338 15 267 0.0 0.0 0.00 0.00 0.00 84 1015.2
20260505075833 15 229 0.0 1.6 0.00 0.00 0.00 84 1015.0
20260505075330 15 205 1.6 1.6 0.00 0.00 0.00 85 1015.3
20260505074828 15 247 0.0 0.0 0.00 0.00 0.00 85 1015.0
20260505074325 15 333 0.0 1.6 0.00 0.00 0.00 85 1015.1
20260505073822 15 266 0.0 0.0 0.00 0.00 0.00 84 1014.9
20260505073320 15 276 0.0 0.0 0.00 0.00 0.00 84 1014.9
20260505072817 15 241 0.0 0.0 0.00 0.00 0.00 83 1015.0
20260505072313 15 346 0.0 1.6 0.00 0.00 0.00 82 1015.1
20260505071809 15 237 1.6 1.6 0.00 0.00 0.00 82 1014.8
20260505071306 15 288 0.0 0.0 0.00 0.00 0.00 82 1014.9
20260505070804 15 206 1.6 1.6 0.00 0.00 0.00 83 1014.8
20260505070300 15 203 0.0 0.0 0.00 0.00 0.00 82 1015.1
20260505065755 15 82 1.6 1.6 0.00 0.00 0.00 82 1014.7
20260505065252 15 223 1.6 1.6 0.00 0.00 0.00 82 1014.8
20260505064749 15 215 1.6 3.2 0.00 0.00 0.00 82 1014.7
20260505064246 15 231 0.0 1.6 0.00 0.00 0.00 82 1014.8
20260505063744 15 209 0.0 0.0 0.00 0.00 0.00 81 1015.1
20260505063240 15 283 0.0 0.0 0.00 0.00 0.00 81 1014.7
20260505062737 16 208 0.0 1.6 0.00 0.00 0.00 81 1014.6
20260505062234 16 303 0.0 1.6 0.00 0.00 0.00 81 1014.9
20260505061731 16 228 1.6 1.6 0.00 0.00 0.00 81 1015.0
20260505061229 16 233 4.8 8.0 0.00 0.00 0.00 80 1015.0
20260505060726 16 176 0.0 0.0 0.00 0.00 0.00 80 1015.0
20260505060223 16 226 0.0 0.0 0.00 0.00 0.00 80 1014.9
20260505055718 16 238 1.6 1.6 0.00 0.00 0.00 80 1015.0
20260505055215 16 233 1.6 3.2 0.00 0.00 0.00 80 1015.1
20260505054712 16 220 1.6 1.6 0.00 0.00 0.00 80 1015.1
20260505054210 16 218 3.2 4.8 0.00 0.00 0.00 82 1015.1
20260505053708 16 205 0.0 1.6 0.00 0.00 0.00 80 1015.1
20260505053204 16 229 0.0 0.0 0.00 0.00 0.00 79 1015.1
20260505052701 16 211 1.6 1.6 0.00 0.00 0.00 78 1015.0
20260505052158 16 243 1.6 1.6 0.00 0.00 0.00 78 1015.1
20260505051655 16 197 1.6 1.6 0.00 0.00 0.00 77 1015.3
20260505051153 17 187 1.6 3.2 0.00 0.00 0.00 77 1015.2
20260505050651 17 260 0.0 1.6 0.00 0.00 0.00 77 1015.4
20260505050149 17 237 1.6 1.6 0.00 0.00 0.00 76 1015.2